Location: Six Mile Lake
(44.9000°N, 79.7170°W)
Time: 21:16:47
(UTC-04:00)

BEESAT - Pass Details

Date: 06 July 2022
Orbit: 700 x 706 km, 98.6° (Epoch: 16 August)

Event Time Altitude Azimuth Distance (km) Brightness Sun altitude
Rises 23:09:08 0° 359° (N) 3,107 ? -15.9°
Reaches altitude 10° 23:11:59 10° 342° (NNW) 2,185 ? -16.1°
Maximum altitude 23:15:14 19° 299° (WNW) 1,676 ? -16.4°
Drops below altitude 10° 23:18:28 10° 256° (WSW) 2,177 ? -16.7°
Sets 23:21:18 0° 238° (WSW) 3,091 ? -17.0°
